Regional Weather Roundup
Issued by NWS

Home | Current Version | Previous Version | Graphics & Text | Print | Product List | Glossary On
Versions: 1 2 3 4 5 6 7 8 9 10 11 12 13 14 15 16 17 18 19 20 21 22 23 24 25 26 27 28 29 30 31 32 33 34 35 36 37 38 39 40 41 42 43 44 45 46 47 48 49 50
000
ASUS45 KTFX 260704
RWRMT
MONTANA HOURLY WEATHER ROUNDUP
NATIONAL WEATHER SERVICE GREAT FALLS MT
104 AM MDT SAT JUL 26 2014

NOTE: "FAIR" INDICATES FEW OR NO CLOUDS BELOW 12000 FEET WITH NO
SIGNIFICANT WEATHER AND/OR OBSTRUCTIONS TO VISIBILITY.

* THESE STATIONS ARE NOT UNDER NWS QUALITY CONTROL. THEY DO NOT
   REPORT WEATHER SUCH AS PRECIPITATION OR FOG.

MTZ001>007-043-260800-
WEST OF THE DIVIDE
CITY           SKY/WX    TMP DP  RH WIND       PRES   REMARKS
KALISPELL      CLEAR     46  43  89 CALM      30.09R
MISSOULA       CLEAR     63  41  45 NW10      30.11R
BUTTE          CLEAR     52  32  47 SE7       30.20R
MULLAN PASS    CLEAR     48  37  66 NW5       30.22R
* ESSEX        N/A       51  45  80 N/A        N/A
* LINCOLN      N/A       55  37  51 W2         N/A
* LOOKOUT PASS N/A       50  42  74 N1         N/A
* POLSON       N/A       55  41  59 E1G6       N/A
* RONAN APT    CLEAR     54  46  74 N/A        N/A
* SEELEY LAKE  N/A       44  38  80 NE1        N/A
* THOMP F APT  CLEAR     61  22  22 NW8G15     N/A
$$

MTZ008-052>055-260800-
SOUTHWEST MONTANA
CITY           SKY/WX    TMP DP  RH WIND       PRES   REMARKS
BOZEMAN        CLEAR     48  39  71 SE5       30.13R
DILLON         CLEAR     52  34  50 W5        30.16R
W YELLOWSTONE  CLEAR     45  32  60 CALM      30.22R
* THREE FORKS  CLEAR     52  45  77 N/A        N/A
* BOULDER HILL N/A       54  31  42 VRB2       N/A
* MONIDA PASS  N/A       51  24  35 W9         N/A
* RAYNOLDS PAS N/A       51  10  19 VRB4G10    N/A
* WHITEHALL    N/A       58  34  41 N2G10      N/A
* WISE RIVER   N/A       49  26  41 S3         N/A
$$

MTZ009>010-012-014-046-048-049-054-260800-
EAST SLOPES AND CENTRAL MONTANA
CITY           SKY/WX    TMP DP  RH WIND       PRES   REMARKS
CUT BANK       CLEAR     50  39  66 N7        30.06R
GREAT FALLS    CLEAR     54  37  53 NW5       30.05R
HELENA         CLEAR     66  37  34 W15       30.09R
* CONRAD       CLEAR     52  48  86 VRB6       N/A
* DEARBORN     N/A       59  38  46 S2         N/A
* EAST GLACIER N/A       57  37  47 NW14       N/A
* MONARCH      N/A       52  28  40 W3         N/A
* PENDROY      N/A       52  39  61 W10        N/A
* ROGERS PASS  N/A       57  35  44 SE6G14     N/A
* SAINT MARY   N/A       58  38  47 S7G16      N/A
* SWEET GRASS  N/A       53  49  86 NE6        N/A
$$

MTZ011-013-016-021-035-040-045-047-050-051-260800-
NORTH CENTRAL MONTANA
CITY           SKY/WX    TMP DP  RH WIND       PRES   REMARKS
HAVRE          CLEAR     54  48  80 SW8       30.01R
LEWISTOWN      CLEAR     55  37  51 W9        30.06R
* CHESTER      N/A       56  45  67 N4         N/A
* DENTON       N/A       54  42  64 NW6G11     N/A
* GEYSER       N/A       51  32  48 W7         N/A
* JUDITH GAP   N/A       56  33  42 N8         N/A
* LOMA         N/A       56  47  72 NE4        N/A
$$

MTZ017>020-022>027-061-062-260800-
NORTHEAST MONTANA
CITY           SKY/WX    TMP DP  RH WIND       PRES   REMARKS
GLASGOW        CLEAR     61  48  62 W17G26    29.89S
GLENDIVE       CLEAR     59  48  67 NW8       29.94R
JORDAN         CLEAR     55  45  69 SW5       29.97R
SIDNEY         CLEAR     55  48  77 SW6       29.90R
WOLF POINT     CLEAR     61  46  58 W14       29.88S
* BEAVER HILL  N/A       59  46  62 NW4        N/A
* CIRCLE       N/A       60  48  65 N/A        N/A
* LINDSAY DVD  N/A       54  47  77 NW11       N/A
* NAVAJO       N/A       59  49  70 W20G32     N/A
$$

MTZ028>042-056>058-260800-
SOUTHCENTRAL AND SOUTHEAST MONTANA
CITY           SKY/WX    TMP DP  RH WIND       PRES   REMARKS
BAKER          CLEAR     52  45  77 NW6       29.93R
BILLINGS       CLEAR     70  30  23 N3        30.04R
LIVINGSTON     CLEAR     59  34  39 W9        30.11R
MILES CITY     CLEAR     64  43  47 N8        29.96R
* LAUREL APT   CLEAR     61  30  31 W5         N/A
* ROUNDUP APT  CLEAR     66  30  26 N/A        N/A
* ALZADA       N/A       60  51  72 W2         N/A
* HYSHAM       N/A       66  29  25 N1         N/A
* LAME DEER    N/A       66  27  23 NW8G15     N/A
* REED POINT   N/A       62  35  37 E6         N/A
* ROSCOE HILL  N/A       62  27  26 N/A        N/A
$$

REGIONAL REPORTS...DAKOTAS
CITY           SKY/WX    TMP DP  RH WIND       PRES   REMARKS
WILLISTON      CLEAR     57  52  83 S8        29.84F
DICKINSON      CLEAR     61  50  67 W5        29.84F
CROSBY         CLEAR     59  54  84 SW14      29.79S
TIOGA          CLEAR     50  50 100 SW7       29.85F
WATFORD CITY   CLEAR     54  52  93 W3        29.84S
BISMARCK       CLEAR     63  54  73 CALM      29.81S
GRAND FORKS    CLEAR     61  55  81 SW8       29.77S
FARGO          CLEAR     59  55  87 SW3       29.80S
BUFFALO SD     CLEAR     63  52  68 W6        29.84S
RAPID CITY     CLEAR     63  54  73 N12       29.89R
$$

REGIONAL REPORTS...WYOMING/IDAHO/WASHINGTON
CITY           SKY/WX    TMP DP  RH WIND       PRES   REMARKS
GILLETTE       CLEAR     64  39  40 N5        30.01R
SHERIDAN       CLEAR     59  36  42 W6        30.04R
YELLOWSTONE LA CLEAR     39  30  70 CALM      30.31R
SALMON         CLEAR     63  34  34 CALM      30.12R
MULLAN PASS    CLEAR     48  37  66 NW5       30.22S
SAND POINT     CLEAR     50  50 100 CALM      30.09R
SPOKANE        CLEAR     61  39  44 SW5       30.07R
$$

REGIONAL REPORTS...ALBERTA
CITY           SKY/WX    TMP DP  RH WIND       PRES   REMARKS
CALGARY        LGT RAIN  55  46  72 N10G18    30.05R
$$

REGIONAL REPORTS...SASKATCHEWAN
CITY           SKY/WX    TMP DP  RH WIND       PRES   REMARKS
SWIFT CURRENT  MOCLDY    54  52  93 W24G32    29.80R

$$



USA.gov is the U.S. government's official web portal to all federal, state and local government web resources and services.